Regional Weather Roundup
Issued by NWS

Home | Current Version | Previous Version | Graphics & Text | Print | Product List | Glossary On
Versions: 1 2 3 4 5 6 7 8 9 10 11 12 13 14 15 16 17 18 19 20 21 22 23 24 25 26 27 28 29 30 31 32 33 34 35 36 37 38 39 40 41 42 43 44 45 46 47 48 49 50
000
ASUS45 KPSR 191710
RWRAZ

ARIZONA REGIONAL HOURLY WEATHER ROUNDUP
NATIONAL WEATHER SERVICE PHOENIX AZ
1000 AM MST TUE AUG 19 2014

NOTE: FAIR INDICATES FEW OR NO CLOUDS BELOW 12,000 FEET WITH NO
SIGNIFICANT WEATHER AND/OR OBSTRUCTIONS TO VISIBILITY.

AZZ001>003-036-191800-
NORTHWEST ARIZONA

CITY           SKY/WX    TMP DP  RH WIND       PRES   REMARKS
BULLHEAD CITY  FAIR      88  68  51 SE10      29.80S
KINGMAN        PTSUNNY   74  65  73 S3        29.98R
$$

AZZ004>008-015-016-018-191800-
NORTH CENTRAL ARIZONA

CITY           SKY/WX    TMP DP  RH WIND       PRES   REMARKS
GRAND CANYON   PTSUNNY   59  57  93 SW7       30.17R
WILLIAMS       CLOUDY    59  57  94 SE10      30.22S
PRESCOTT       CLOUDY    65  60  84 S6        30.08R
FLAGSTAFF      HVY RAIN  56  55  97 VRB7      30.21S VSB 1/2
PAYSON         LGT RAIN  63  61  94 NE5       30.14F
PAGE           PTSUNNY   79  51  37 N6        29.99S
$$

AZZ009>014-017-191800-
NORTHEAST ARIZONA

CITY           SKY/WX    TMP DP  RH WIND       PRES   REMARKS
WINSLOW        LGT RAIN  68  60  75 SE7       30.11R
SAINT JOHNS    FAIR      70  57  63 CALM      30.13S
WINDOW ROCK    CLOUDY    72  45  37 VRB3      30.18S
SHOW LOW       PTSUNNY   61  54  77 S13       30.22R
$$

AZZ023-191800-
GREATER PHOENIX AREA

CITY           SKY/WX    TMP DP  RH WIND       PRES   REMARKS
PHOENIX        PTSUNNY   83  72  69 E10       29.87R
BUCKEYE          N/A     86  72  62 SW10      29.86S
GLENDALE       PTSUNNY   82  73  74 E5        29.88R
LUKE AFB       NOT AVBL
DEER VALLEY    PTSUNNY   80  72  76 SE10      29.88R
SCOTTSDALE     FAIR      81  69  67 SE7       29.90F
MESA-FALCON    PTSUNNY   81  73  78 NE7       29.89R
MESA-GATEWAY   PTSUNNY   81  72  74 SE5       29.91S
CHANDLER       PTSUNNY   79  73  83 VRB6      29.89R
$$

AZZ027-028-191800-
SOUTHWEST MARICOPA COUNTY AND PINAL COUNTY

CITY           SKY/WX    TMP DP  RH WIND       PRES   REMARKS
CASA GRANDE    FAIR      88  66  48 SW8G18    29.90S
GILA BEND      PTSUNNY   88  66  48 SW12G21   29.86
$$

AZZ503-504-507>509-191800-
SOUTHEAST ARIZONA

CITY           SKY/WX    TMP DP  RH WIND       PRES   REMARKS
TUCSON         FAIR      85  65  51 S13       30.00R
DAVIS-MONTHAN  FAIR      82  66  57 S12       29.98S
RYAN FIELD       N/A     86  64  48 SW12G18   29.98S
NOGALES        FAIR      76  65  68 VRB5      30.09R
SIERRA VISTA   LGT RAIN  73  63  68 SE3       30.12S
DOUGLAS        PTSUNNY   73  65  75 SE8       30.09S
SAFFORD        FAIR      76  62  62 CALM      30.01F
$$

AZZ020-021-025-026-031-191800-
SOUTHWEST ARIZONA

CITY           SKY/WX    TMP DP  RH WIND       PRES   REMARKS
YUMA           FAIR      95  66  38 S15       29.78R
$$

CAZ031-033-041-043-047-048-061-191800-
SOUTHERN CALIFORNIA

CITY           SKY/WX    TMP DP  RH WIND       PRES   REMARKS
DOWNTOWN L.A.  CLOUDY    73  59  61 VRB3      29.90R
L.A. AIRPORT   CLOUDY    72  59  63 SE7       29.90S
SAN DIEGO      PTSUNNY   71  59  65 S9        29.93R
BURBANK        CLOUDY    70  58  65 SE8G16    29.90F
ONTARIO        FAIR      71  59  65 SW5       29.91S
RIVERSIDE      FAIR      74  60  61 VRB5      29.90F
PALM SPRINGS   FAIR      90  64  42 CALM      29.79S
EL CENTRO NAS  FAIR      95  45  17 CALM      29.75R
IMPERIAL       FAIR      93  54  26 VRB6      29.75R
BLYTHE         PTSUNNY   91  75  59 S10       29.77S HX 101
NEEDLES        CLOUDY    89  69  51 S9        29.80S
$$

NVZ020-UTZ003-191800-
SOUTHERN NEVADA-UTAH

CITY           SKY/WX    TMP DP  RH WIND       PRES   REMARKS
LAS VEGAS      PTSUNNY   81  64  56 N13       29.85R
SALT LAKE CITY LGT RAIN  65  60  84 S8        30.00S
$$

NMZ009-TXZ055-191800-
NEW MEXICO-WEST TEXAS

CITY           SKY/WX    TMP DP  RH WIND       PRES   REMARKS
ALBUQUERQUE    MOSUNNY   79  47  32 CALM      30.09F
EL PASO        FAIR      84  57  39 SW14      30.00S
$$


........................KEY........................
SKY/WX - SKY CONDITION/WEATHER
TMP    - TEMPERATURE IN FAHRENHEIT
DP     - DEW POINT IN FAHRENHEIT
RH     - RELATIVE HUMIDITY IN PERCENT
WIND   - DIRECTION AND SPEED IN MILES PER HOUR (MPH)
VRB    - VARIABLE WIND DIRECTION
PRES   - MEAN SEA LEVEL PRESSURE IN INCHES OF MERCURY
         F - FALLING PRESSURE   R - RISING PRESSURE
         S - STEADY PRESSURE
VSB    - VISIBILITY IN MILES
HX     - HEAT INDEX IN FAHRENHEIT
WCI    - WIND CHILL INDEX IN FAHRENHEIT
TC     - TEMPERATURE IN CELSIUS WHICH IS ALSO KNOWN AS
         TEMPERATURE IN CENTIGRADE
AFB    - AIR FORCE BASE
         LUKE AFB IS LUKE AIR FORCE BASE
         DAVIS-MONTHAN IS DAVIS-MONTHAN AIR FORCE BASE
NAS    - NAVAL AIR STATION
         EL CENTRO NAS IS EL CENTRO NAVAL AIR STATION
N/A    - NOT AVAILABLE



USA.gov is the U.S. government's official web portal to all federal, state and local government web resources and services.